GFSNE_con_lsi_000.txt.gz
Lid_Strength_Index
19 19 19 19 19 19 19 19 20 22 21 20 19 18 18 18 17 18 18 17 15 14 13 13 12 11 11 10 10 9 8 8 7 7 6 5 5 5
19 19 19 19 19 19 19 19 20 22 23 20 19 19 19 18 17 18 18 16 16 15 14 13 12 11 11 10 10 10 9 8 8 7 6 6 5 5
20 20 20 20 21 21 21 21 21 21 23 21 20 20 20 20 19 18 18 18 17 14 13 12 11 11 11 11 10 10 10 9 9 8 7 6 6 5
20 20 21 21 22 22 22 22 22 22 23 24 22 21 21 21 20 20 18 17 17 15 13 11 11 11 11 11 11 10 10 10 9 9 8 7 7 6
20 20 21 21 23 23 23 23 23 22 22 23 23 21 21 20 20 19 18 17 16 14 13 13 12 12 11 11 11 11 11 11 10 10 9 8 7 6
19 20 21 21 22 23 23 23 23 24 23 23 23 22 21 19 19 18 18 17 17 15 14 14 13 12 12 11 12 12 12 12 11 11 10 9 9 7
20 20 21 21 20 21 22 23 23 24 23 23 22 21 20 19 19 18 18 18 17 16 16 15 14 14 14 12 13 12 12 11 11 10 10 9 9 8
21 21 21 20 19 18 18 19 21 25 28 26 21 20 19 19 18 18 18 18 19 15 16 17 15 16 15 14 12 11 10 10 10 10 9 9 9 8
20 21 21 21 20 19 17 17 18 17 19 20 19 18 19 18 18 18 17 17 18 17 18 19 17 18 15 14 12 11 11 10 10 10 9 8 8 7
21 21 21 21 21 20 19 18 18 18 17 17 18 18 18 17 17 16 17 19 19 18 17 21 18 19 16 15 12 11 11 11 10 9 9 8 8 7
20 20 20 21 19 17 20 21 20 19 17 15 15 14 14 14 15 19 24 25 23 21 18 20 19 19 17 16 15 12 12 11 10 10 9 8 7 7
20 20 19 19 17 16 20 21 23 20 19 20 18 18 18 18 17 18 22 28 24 25 17 20 19 18 20 17 15 15 15 13 12 12 11 10 9 9
21 21 19 16 16 15 17 20 20 18 19 22 22 22 21 21 20 19 19 20 22 22 17 17 19 18 19 20 18 16 16 16 15 14 11 10 9 8
20 20 19 16 15 15 15 16 15 20 25 27 28 26 23 22 21 20 19 19 18 17 16 16 18 18 20 20 20 17 16 16 15 14 13 11 9 9
19 18 17 15 15 15 14 15 18 23 25 29 27 25 23 21 20 20 20 19 19 17 16 16 17 17 17 19 20 18 17 16 15 16 15 15 14 13
17 18 17 15 15 18 17 17 21 22 23 25 24 23 22 22 22 21 22 21 21 21 17 16 15 16 17 17 18 19 17 18 16 16 16 16 15 13
18 19 18 20 21 22 23 22 22 23 23 23 24 24 24 23 22 21 21 22 23 22 21 18 16 15 16 17 19 18 17 18 17 16 16 17 16 15
19 20 21 22 22 23 24 24 23 23 22 23 24 24 24 23 23 22 22 23 23 22 21 20 18 19 19 18 15 17 17 18 17 16 16 18 17 15
21 22 22 23 23 24 24 24 24 23 24 24 24 24 24 24 24 24 23 22 22 21 21 19 20 20 23 24 19 13 17 17 17 18 17 17 18 16
22 22 23 23 23 24 24 25 25 25 25 25 25 26 26 26 26 25 23 23 23 22 22 20 20 20 21 22 22 18 14 17 17 18 17 16 16 14
22 22 23 24 24 25 25 26 26 27 27 28 28 29 28 28 27 25 23 22 22 22 22 21 19 17 18 18 20 20 17 14 14 17 17 18 18 18
22 24 25 24 25 26 27 28 29 29 29 30 30 30 29 28 26 25 24 23 23 21 21 20 19 19 19 20 21 20 19 17 15 15 15 16 19 21
24 25 27 26 27 28 28 29 29 28 30 30 30 31 29 28 25 24 24 23 21 21 21 22 21 20 20 19 20 20 20 20 19 19 18 16 16 15

GFSNE_con_lsi_003.txt.gz
Lid_Strength_Index
16 16 16 16 16 16 16 16 15 18 18 17 17 16 16 17 17 17 18 18 16 15 14 13 12 11 10 10 9 8 7 7 6 6 6 5 5 5
17 17 17 17 17 16 16 16 17 16 18 18 17 17 17 18 17 17 18 17 17 16 15 13 12 11 10 9 9 8 7 7 7 6 6 6 5 5
17 17 17 17 17 17 17 17 17 18 18 20 19 18 18 18 18 18 18 17 17 16 14 13 11 11 10 10 9 8 8 8 7 7 6 6 6 6
18 18 18 18 18 18 18 18 18 18 19 19 20 19 19 19 19 19 18 17 16 15 13 12 12 11 11 10 10 9 9 9 8 8 8 7 7 7
18 18 18 19 20 19 19 20 20 20 19 20 20 20 20 19 19 18 17 16 16 14 13 13 12 12 11 11 10 10 10 10 9 9 9 8 8 7
17 18 18 19 19 20 20 20 21 21 21 21 21 21 21 19 19 18 17 16 16 15 14 14 13 13 12 11 11 11 11 10 9 9 9 8 8 8
18 18 18 18 18 19 20 21 21 21 21 22 22 21 20 20 19 18 18 17 15 14 15 14 14 14 14 13 13 12 11 10 10 9 9 8 8 8
19 18 18 18 17 17 17 18 19 22 22 21 21 21 20 19 18 18 18 17 17 14 16 16 15 15 14 14 13 12 11 11 10 10 9 9 8 8
18 19 19 19 18 18 17 17 17 17 19 20 20 19 19 18 18 18 17 17 18 16 17 18 15 16 14 14 13 12 12 11 10 10 10 9 9 8
18 18 19 20 19 19 18 18 19 18 19 18 18 18 17 17 17 16 17 18 18 18 17 19 16 17 16 15 13 12 12 11 11 11 11 10 9 9
18 18 18 19 18 17 18 19 19 19 16 16 15 15 15 15 15 18 20 21 21 19 18 19 18 18 17 16 14 13 12 12 12 12 11 10 10 10
18 19 18 19 17 16 18 19 20 19 18 17 17 15 15 17 17 18 19 22 21 22 18 19 19 18 20 17 15 15 15 14 13 12 11 11 10 11
19 19 19 17 16 15 17 19 18 18 17 18 18 19 19 19 19 19 19 20 21 21 18 18 19 19 20 20 18 17 15 15 14 13 12 11 11 11
18 19 19 16 15 15 16 17 16 18 18 20 20 21 21 21 20 19 19 19 19 19 18 18 20 20 21 21 21 17 16 15 14 13 13 12 12 12
17 17 17 15 15 15 15 16 17 19 20 22 22 22 21 20 20 20 20 20 20 20 19 19 19 19 20 20 21 19 17 15 13 14 13 13 14 14
16 17 17 16 15 15 15 16 18 20 21 21 22 22 21 22 22 21 22 22 22 22 20 19 19 19 19 18 18 18 16 17 14 14 14 14 14 14
18 18 18 17 17 17 18 20 21 22 22 22 23 23 23 23 23 22 22 23 24 23 23 20 19 18 18 18 18 17 17 16 14 14 15 16 15 13
18 19 18 18 21 20 22 22 22 23 22 23 23 24 24 23 23 23 23 23 24 23 23 21 21 20 19 17 15 17 16 15 15 15 15 17 17 14
18 19 18 19 20 21 22 23 23 23 22 23 24 24 24 24 24 24 24 24 24 23 22 21 21 21 22 23 17 14 16 16 16 17 16 16 16 15
18 18 19 19 20 22 22 23 23 24 24 24 24 25 25 25 26 25 24 25 24 24 23 22 21 20 20 21 21 18 15 17 17 17 16 15 14 13
19 19 20 20 20 21 21 21 22 23 23 24 25 26 27 27 27 25 25 24 24 24 24 22 19 17 17 17 20 20 17 14 14 16 15 16 18 17
19 20 20 20 21 22 23 24 25 25 26 27 27 28 28 27 26 26 25 24 24 23 22 20 18 17 18 19 21 20 19 17 15 14 13 13 17 20
19 21 21 23 23 24 25 26 26 26 27 27 27 27 27 27 26 25 24 24 24 23 22 20 19 18 19 19 20 21 20 20 19 19 16 13 13 14

GFSNE_con_lsi_006.txt.gz
Lid_Strength_Index
12 11 11 12 12 12 12 11 12 15 16 14 15 13 13 14 15 15 16 17 16 16 15 14 13 12 11 11 10 10 9 9 8 8 7 6 6 5
12 13 13 13 13 13 13 13 12 12 13 14 14 14 14 15 16 16 16 18 17 16 15 14 13 13 12 12 11 11 9 9 8 7 7 6 6 5
14 14 14 13 13 14 14 14 14 13 13 16 15 14 15 16 17 17 16 16 15 16 15 14 14 14 13 12 11 10 10 9 8 8 7 7 6 6
15 15 14 15 14 14 14 15 15 15 14 17 17 17 17 17 17 17 17 17 16 16 16 14 14 14 13 12 11 10 10 10 9 9 8 7 7 7
15 15 15 16 15 15 15 15 15 16 15 15 18 18 18 17 18 18 17 16 16 16 15 14 14 13 12 12 11 11 11 11 10 9 9 8 8 8
14 14 15 16 15 15 16 15 15 15 16 17 18 19 19 18 18 17 18 16 16 16 15 14 14 13 13 12 12 12 12 11 10 10 10 9 9 8
15 15 15 15 14 14 15 15 16 16 16 17 18 19 19 20 19 17 17 16 15 14 14 13 13 13 13 13 13 12 12 11 11 10 10 9 9 9
15 15 15 15 15 13 13 14 15 16 17 17 18 19 19 18 18 18 18 18 16 14 15 14 14 14 13 13 12 12 12 11 11 11 10 10 9 9
15 15 16 16 16 15 14 14 15 14 15 16 17 18 18 17 17 18 17 17 17 16 16 17 14 15 14 14 13 13 13 12 11 11 11 10 10 10
14 14 15 16 16 16 16 16 16 16 16 17 16 17 16 16 16 16 16 16 17 17 17 19 15 16 15 14 13 13 12 12 12 12 12 11 11 11
14 14 14 15 15 14 16 16 17 17 16 16 16 16 15 15 16 16 18 19 20 19 18 19 17 17 16 15 14 13 13 13 13 13 12 12 12 12
13 14 14 14 14 14 15 16 18 18 18 18 17 16 15 16 16 16 17 20 19 20 18 19 18 18 18 16 15 15 15 14 14 13 13 13 12 12
13 14 15 14 14 14 13 15 16 16 17 18 17 17 17 16 16 17 18 18 19 19 17 18 19 18 18 18 17 16 15 15 15 15 14 13 13 13
13 13 14 14 13 14 13 14 14 16 17 17 18 18 19 18 18 19 18 18 18 18 17 18 19 19 19 20 19 16 16 16 16 15 15 14 13 13
12 13 14 14 13 13 12 14 15 17 17 18 19 19 19 19 19 19 19 19 19 19 19 19 19 19 19 20 20 19 18 17 16 16 16 16 15 15
11 13 14 14 14 14 14 14 15 17 18 19 19 19 19 20 20 20 21 21 21 21 20 19 19 19 20 20 19 20 19 20 17 16 16 16 15 14
14 15 16 16 16 15 15 17 17 19 19 19 20 21 21 21 21 21 21 21 23 22 21 20 19 19 19 20 21 20 19 18 17 17 17 18 16 14
15 16 16 17 16 16 16 17 18 19 19 20 21 21 22 22 22 22 22 23 23 23 23 21 21 21 21 19 18 20 19 19 18 17 17 18 17 14
14 15 16 16 16 15 17 19 20 19 20 21 21 22 22 22 23 23 23 23 24 23 23 22 22 22 24 24 19 17 19 19 19 18 17 16 17 15
13 15 16 16 15 16 18 19 20 21 21 22 22 23 23 23 24 24 24 24 25 24 24 22 22 22 22 23 22 20 17 18 18 18 17 15 14 13
13 15 15 14 15 16 18 19 20 21 21 22 23 24 24 24 24 23 23 24 24 24 24 23 21 20 20 19 22 21 18 15 15 17 16 17 18 17
12 14 14 16 17 18 18 19 20 22 23 23 24 24 24 23 24 24 24 24 24 23 23 21 20 20 20 21 21 20 19 17 16 14 14 14 17 19
14 15 17 17 18 19 20 21 21 22 23 24 25 25 25 25 24 23 23 24 23 23 22 22 20 19 20 20 20 20 20 20 18 19 17 14 14 13

GFSNE_con_lsi_009.txt.gz
Lid_Strength_Index
11 11 11 11 11 11 11 11 12 16 16 14 15 12 13 13 15 15 15 15 16 15 14 14 13 12 12 12 11 10 10 9 9 9 9 8 8 8
12 12 12 12 12 11 11 11 11 12 14 14 14 13 13 14 15 15 15 16 16 15 15 14 13 13 12 12 11 11 11 10 10 10 10 10 9 9
13 13 13 12 12 12 12 12 13 12 12 16 14 14 14 15 16 17 16 17 16 15 15 14 14 13 13 13 12 12 12 11 11 11 10 10 9 8
13 13 13 13 13 13 13 14 14 14 13 17 16 16 15 16 17 18 18 17 17 15 14 14 13 13 13 13 13 13 13 12 12 11 10 9 9 9
13 13 13 13 14 14 14 15 15 16 15 16 17 16 17 16 17 18 18 18 18 16 14 14 14 13 13 13 13 13 13 13 12 10 10 10 9 9
13 13 13 14 14 14 14 15 15 15 15 15 18 18 18 18 18 19 19 18 18 17 16 15 15 14 14 14 14 13 13 12 12 11 10 10 10 10
14 14 13 13 14 13 14 14 14 15 15 16 17 18 19 19 19 18 18 18 17 16 17 17 16 16 15 14 14 14 13 12 12 11 11 11 10 10
14 14 14 14 14 13 12 12 13 14 15 16 17 18 18 18 18 18 18 18 19 15 16 16 16 17 16 16 14 13 13 12 12 12 11 11 11 11
14 14 14 14 14 15 13 11 12 11 12 14 16 16 17 18 17 17 18 17 17 16 16 18 17 18 16 16 14 13 13 12 12 11 11 11 11 11
13 14 14 14 14 15 15 14 14 14 13 13 14 15 16 16 16 16 17 16 17 18 17 19 17 18 16 16 14 13 13 12 12 12 12 12 12 12
13 13 13 14 13 13 15 15 15 14 13 12 13 13 13 13 14 15 17 18 19 19 18 19 18 18 17 18 16 14 13 13 13 13 13 12 12 12
12 12 12 12 12 11 14 14 15 15 16 15 16 15 14 14 13 15 16 18 19 20 18 19 19 19 20 17 16 15 15 15 14 14 13 13 13 14
12 11 12 11 11 11 12 14 15 14 15 15 17 16 16 16 16 16 16 17 19 19 18 18 19 19 21 20 18 16 16 16 16 16 15 14 13 13
12 11 10 10 11 11 11 12 12 13 15 16 17 17 17 17 16 16 17 17 17 18 17 18 20 20 21 21 21 18 17 17 17 17 16 15 13 13
10 10 9 9 10 12 11 12 13 14 16 17 18 17 16 16 16 18 18 18 19 18 19 19 19 19 20 21 21 20 20 18 17 18 17 17 17 17
9 10 9 8 10 12 14 12 13 14 17 17 17 16 16 18 19 19 20 20 22 22 21 20 20 20 21 21 21 21 20 21 18 18 18 17 17 17
11 10 10 10 12 13 14 14 14 14 16 16 16 17 18 19 20 19 21 22 23 23 23 22 20 20 20 21 23 21 21 21 19 19 19 20 18 18
11 12 11 11 13 13 14 15 14 15 16 16 16 18 20 20 21 21 21 22 23 23 22 22 22 22 22 21 19 22 21 21 19 19 19 22 21 19
11 12 12 12 13 13 13 14 14 16 16 17 19 20 20 20 22 22 22 22 23 22 22 22 23 23 25 26 20 17 21 21 21 22 21 21 22 20
10 11 12 12 12 13 13 13 15 17 18 19 19 20 20 21 22 23 23 24 24 23 23 23 23 23 25 25 26 22 19 22 22 22 21 20 19 17
10 10 11 11 12 11 13 14 16 17 18 19 20 20 20 22 23 23 23 23 24 24 25 24 23 21 21 22 25 25 21 18 18 20 20 22 22 22
9 9 11 11 11 13 14 15 17 18 19 19 20 21 21 22 23 23 24 24 24 24 24 23 21 22 23 23 24 24 22 21 19 18 18 18 21 24
8 9 10 11 12 13 15 16 17 18 19 20 21 22 21 22 23 23 23 24 24 24 24 23 23 22 22 22 23 24 23 23 22 22 21 17 16 15

GFSNE_con_lsi_015.txt.gz
Lid_Strength_Index
14 14 13 12 13 14 15 16 16 18 18 18 18 15 14 14 14 13 15 12 11 10 10 10 10 10 10 9 9 9 9 9 10 10 9 9 9 9
15 15 15 13 13 12 13 15 16 14 16 16 17 17 14 13 14 14 16 13 12 11 11 10 10 10 10 10 10 10 10 10 10 11 11 10 10 10
15 16 15 15 14 13 15 14 14 16 14 15 17 17 15 14 15 15 15 15 15 12 11 11 11 11 11 10 11 10 10 10 11 11 11 11 11 10
14 15 15 14 15 14 14 14 13 14 13 14 18 17 16 15 15 16 16 16 16 13 12 11 11 11 11 11 11 11 11 11 11 12 11 11 11 11
13 13 13 14 15 14 15 14 13 14 15 16 17 18 17 16 18 16 17 17 17 15 12 12 12 12 12 11 12 12 12 12 12 12 12 12 12 12
13 13 13 14 13 14 14 14 14 14 14 15 18 18 18 18 16 17 19 18 17 17 14 13 13 12 12 11 12 12 13 12 13 13 12 12 12 12
12 12 12 13 12 12 13 13 13 14 14 14 15 19 19 18 18 17 16 17 17 17 17 17 16 15 14 12 13 12 12 13 13 13 13 13 12 12
13 12 12 12 11 10 10 10 11 13 13 13 14 15 16 16 16 17 16 18 19 17 18 18 17 17 16 15 12 12 12 13 13 13 13 13 12 13
13 13 12 11 11 11 10 9 10 10 10 12 13 13 14 15 16 16 16 16 16 17 16 18 18 18 17 16 13 12 12 13 13 13 13 13 12 13
14 13 13 12 12 11 11 11 11 10 11 11 11 12 12 14 14 14 15 15 16 17 16 18 18 19 17 17 13 12 12 12 13 13 13 13 13 13
15 15 14 14 12 10 11 12 11 11 9 9 9 9 9 10 13 14 16 17 18 18 17 17 18 17 18 18 16 12 12 12 12 13 13 13 13 14
16 15 14 14 12 11 12 11 12 12 11 10 10 9 9 10 10 14 14 17 16 19 17 18 19 19 20 18 17 15 14 12 13 12 13 13 14 16
17 17 15 13 12 11 10 11 11 10 10 11 11 11 11 11 11 13 14 14 15 16 17 16 18 18 19 21 18 17 16 15 14 14 13 13 14 15
18 17 16 13 12 11 11 10 8 8 10 11 11 11 11 11 11 11 13 13 13 14 17 15 18 18 20 21 21 18 18 16 16 17 17 15 15 14
17 17 15 14 14 13 11 9 9 9 10 10 12 12 11 11 11 11 12 13 14 14 16 15 17 17 17 20 21 19 19 18 17 18 18 18 18 17
17 17 17 15 14 13 14 11 10 9 9 9 10 11 11 11 12 12 14 15 16 18 17 15 17 17 17 19 19 20 19 20 18 18 18 18 17 17
16 17 18 17 17 16 15 11 10 10 10 8 9 10 11 12 13 12 13 15 16 18 20 19 18 18 19 19 20 19 20 20 18 19 19 19 18 17
14 17 18 18 18 17 16 14 12 11 10 9 9 9 11 12 12 13 13 15 16 19 20 20 21 21 22 21 19 20 20 20 19 19 19 21 20 18
15 18 19 19 17 16 15 13 11 10 8 9 9 10 11 11 12 13 14 15 16 18 20 20 21 21 24 25 22 18 21 20 20 20 20 20 21 19
16 17 18 18 17 16 15 13 10 9 9 8 9 10 11 11 12 14 14 15 16 18 20 20 21 21 22 22 24 21 18 20 20 21 21 20 20 18
17 16 16 17 16 14 13 11 10 10 9 8 10 10 11 12 13 14 14 15 15 17 21 21 20 19 21 21 23 23 20 18 19 20 21 22 23 22
18 17 14 12 14 14 12 9 9 9 9 8 9 10 11 12 14 15 15 16 16 17 19 19 19 20 21 22 23 23 23 21 18 18 19 20 22 24
18 17 15 12 10 9 9 9 9 10 10 10 11 11 12 13 13 14 15 15 17 18 20 21 20 20 21 22 23 23 23 23 23 23 22 20 20 19

GFSNE_con_lsi_021.txt.gz
Lid_Strength_Index
16 15 15 14 14 14 14 14 14 16 15 13 17 16 15 15 14 13 13 11 8 6 5 6 6 7 7 6 6 5 5 5 5 5 6 6 6 6
15 15 15 15 14 13 14 14 15 15 16 15 13 16 15 15 14 14 13 11 10 7 7 6 7 7 7 7 6 6 6 6 5 6 6 6 7 7
15 16 15 14 14 14 14 14 13 14 16 15 14 15 16 16 15 14 14 13 13 9 8 7 7 7 7 7 7 7 7 6 6 6 6 6 7 7
15 15 15 14 15 14 14 14 14 13 14 16 14 14 16 16 15 15 14 14 14 12 9 8 7 8 8 8 8 7 7 7 7 7 6 7 7 7
15 15 15 15 15 14 14 14 13 12 13 14 14 13 13 15 16 15 15 14 14 12 10 9 8 8 8 8 8 8 8 8 7 7 7 7 7 7
15 15 15 15 15 14 14 14 13 13 13 13 14 14 13 13 14 14 15 15 15 15 13 11 10 9 8 8 8 9 9 9 8 8 8 8 8 8
15 15 15 15 13 13 14 14 14 14 14 14 14 14 14 16 14 13 13 13 14 14 15 15 13 12 11 9 10 10 9 9 9 9 9 8 8 9
16 15 15 15 14 13 13 12 13 14 14 13 13 14 13 13 13 12 12 13 15 14 14 15 14 14 13 12 10 9 9 9 9 9 9 10 9 9
16 16 16 15 16 16 14 13 13 13 12 12 12 12 12 11 11 13 12 12 12 13 13 15 14 15 13 13 10 9 9 9 9 9 9 10 10 10
17 17 17 17 16 16 16 16 15 15 14 13 13 12 11 10 9 10 11 11 11 11 11 15 14 15 14 13 11 10 9 9 9 9 9 10 10 10
17 17 17 17 15 14 15 16 16 15 12 11 11 10 10 9 8 9 10 11 12 12 13 12 13 14 15 14 14 11 10 9 9 9 10 10 10 10
16 16 14 15 13 12 14 15 17 16 15 15 14 12 11 11 9 8 9 10 11 12 11 13 12 15 17 15 14 14 12 10 9 9 9 10 10 11
17 17 15 13 13 12 12 14 15 14 14 14 15 15 13 12 11 9 9 9 10 11 12 12 12 13 14 18 16 15 14 12 11 10 9 9 9 11
16 16 16 13 12 12 12 11 11 11 13 14 16 16 15 13 11 10 8 8 8 8 8 10 14 12 13 14 17 16 15 13 12 12 11 10 9 9
14 13 11 11 10 11 11 11 13 15 16 18 18 18 16 14 12 10 9 7 8 7 7 9 10 11 12 13 14 16 16 15 13 12 12 12 12 11
13 13 12 11 10 11 13 12 13 13 14 16 17 16 15 15 14 12 10 9 9 8 7 7 9 9 12 12 12 15 15 16 14 13 13 13 12 12
12 14 16 16 17 16 15 15 15 15 17 17 17 17 16 16 15 13 10 9 10 10 9 8 8 8 9 11 12 12 14 14 14 14 14 14 13 13
16 20 21 19 19 18 18 17 15 16 16 16 16 16 16 16 14 12 9 9 10 10 10 11 10 11 14 14 10 13 13 13 14 14 14 15 16 14
22 22 21 20 19 19 18 17 17 15 15 16 16 15 15 14 13 11 10 9 9 10 9 12 11 12 13 15 16 11 14 13 14 15 15 15 17 17
23 23 22 21 20 19 18 16 14 15 16 16 16 15 14 13 10 11 9 9 9 10 11 13 12 11 12 14 17 17 11 13 14 14 15 16 15 15
23 22 22 21 21 20 18 16 15 14 15 15 14 14 13 12 10 10 10 11 10 11 13 15 12 10 10 12 16 17 14 11 12 14 15 16 18 19
22 22 21 21 21 20 19 17 16 14 13 13 12 11 11 10 10 9 10 11 11 12 13 13 11 12 12 14 16 18 17 14 12 11 12 14 17 20
21 21 20 21 20 19 18 17 16 15 14 13 12 10 9 9 9 10 10 10 10 12 13 14 13 12 12 13 16 16 16 16 16 16 16 14 14 14

GFSNE_con_lsi_024.txt.gz
Lid_Strength_Index
16 15 15 15 14 14 14 14 16 18 17 15 16 15 15 15 14 14 14 12 10 9 7 4 4 4 4 4 4 4 4 4 4 5 4 4 4 5
15 16 15 15 15 15 14 14 14 15 18 14 13 15 14 13 14 14 14 12 11 10 8 7 5 5 5 5 5 5 5 4 4 5 5 5 5 5
16 16 15 15 15 15 15 15 15 15 17 16 14 12 14 14 13 14 14 14 14 11 10 8 7 6 5 6 6 6 6 5 5 5 5 5 5 6
16 16 16 15 16 15 15 15 15 15 16 17 15 14 13 12 13 14 13 14 14 12 10 9 8 7 7 6 6 6 6 6 5 5 5 5 5 6
15 15 15 15 16 16 16 15 15 14 15 16 16 14 13 13 13 13 13 13 13 11 10 10 9 8 7 7 7 7 7 7 7 6 6 6 6 6
15 15 15 15 15 16 16 16 15 15 15 15 16 15 15 13 14 14 13 13 13 12 11 10 10 9 8 7 8 9 8 7 7 7 7 7 7 7
14 14 14 14 13 14 15 16 15 16 16 16 16 16 15 15 15 13 14 13 12 12 13 13 12 11 10 8 9 9 8 8 7 7 7 7 7 8
15 15 15 15 15 14 13 13 14 16 17 16 16 16 15 14 13 14 13 13 14 13 12 13 13 13 11 10 8 8 8 8 8 8 8 7 8 8
15 16 16 15 16 16 15 14 14 14 13 15 17 17 16 15 14 14 13 13 13 12 13 13 13 14 12 11 8 7 7 8 8 8 8 8 8 8
16 16 16 16 16 16 16 16 15 15 14 14 15 16 15 15 15 15 14 13 13 12 12 14 13 12 11 11 9 8 7 7 8 8 8 8 8 9
16 16 16 16 15 13 14 15 15 14 12 12 12 11 11 11 11 12 14 15 16 14 11 12 12 12 12 11 11 8 8 7 7 7 7 8 8 9
16 15 13 13 12 12 13 15 16 15 14 15 14 13 12 13 11 13 14 16 15 15 11 12 12 12 15 13 11 11 10 8 7 7 7 7 8 10
15 15 14 12 11 11 11 13 14 13 13 14 14 14 14 13 13 13 13 13 15 14 10 9 11 11 12 16 14 11 11 10 10 9 7 7 8 9
14 14 13 11 10 9 10 9 9 10 12 14 15 16 15 15 15 14 13 12 11 12 10 10 9 10 11 12 13 14 12 11 10 11 10 8 8 8
12 11 10 10 10 11 11 11 12 13 14 15 15 15 15 15 14 15 14 14 14 13 11 9 9 9 9 11 12 15 15 13 11 10 10 10 10 9
12 12 12 13 13 14 16 15 15 15 15 16 16 15 14 14 15 15 17 17 17 16 13 10 8 8 9 10 10 13 13 14 12 11 10 11 10 9
13 17 19 20 20 19 19 18 18 17 17 16 16 16 15 16 16 15 16 16 18 17 15 11 8 7 7 8 10 10 12 12 12 11 11 11 11 11
18 23 23 22 22 21 21 20 19 18 16 16 16 15 16 16 16 16 15 16 17 16 15 11 8 8 8 8 7 9 10 11 11 10 10 11 11 11
27 25 24 24 23 22 22 21 20 18 16 15 14 14 15 16 16 16 15 15 15 13 12 11 8 8 11 13 13 6 10 11 11 11 10 11 12 11
31 25 25 24 23 22 21 21 20 19 17 16 14 14 14 15 15 15 14 12 14 13 11 9 8 8 10 12 12 15 8 10 11 12 11 10 10 10
24 24 23 22 22 21 21 20 19 19 17 16 15 13 13 13 14 13 12 10 10 10 9 11 8 7 8 10 13 16 12 8 9 11 11 12 14 15
23 23 22 21 21 21 20 20 19 18 17 16 16 14 13 12 11 11 10 10 9 8 10 11 10 10 11 11 13 18 15 11 9 8 9 11 14 17
23 22 21 21 20 20 20 20 19 18 17 16 16 15 14 14 13 11 10 9 10 10 11 12 11 11 11 12 14 15 14 13 13 14 14 10 13 13

GFSNE_con_lsi_027.txt.gz
Lid_Strength_Index
14 14 14 13 13 13 13 13 15 17 16 13 12 9 9 9 9 10 10 11 10 9 9 8 7 6 3 2 3 3 3 3 4 3 3 2 3 4
14 15 14 14 14 13 13 13 13 15 17 14 13 12 10 10 10 10 10 11 10 10 9 9 8 7 5 4 4 4 3 3 4 4 3 3 3 3
14 14 14 14 14 14 14 14 14 14 16 15 14 12 12 12 11 10 9 10 11 11 10 9 9 8 7 6 5 4 4 4 4 4 3 3 4 4
14 14 14 14 14 14 14 14 14 14 15 17 15 14 13 12 12 12 11 10 10 10 10 10 9 9 8 7 6 5 5 5 5 5 4 3 4 4
15 15 15 15 15 14 14 15 14 14 14 15 16 14 14 13 13 12 11 11 10 9 8 9 9 9 9 8 7 7 7 7 6 6 6 5 4 4
14 14 14 14 15 14 14 14 14 14 14 15 15 15 15 14 13 13 13 11 11 11 10 9 9 9 9 9 8 8 7 7 7 7 7 6 6 5
13 13 13 13 12 13 13 14 14 14 15 15 16 15 15 15 15 13 13 12 11 10 11 10 10 10 9 9 9 9 7 6 7 7 7 7 7 6
14 14 14 14 13 13 12 12 13 14 16 16 16 16 16 16 15 16 15 15 16 10 11 11 10 10 10 9 9 8 7 6 6 6 7 7 7 7
14 14 15 14 14 15 14 13 13 13 12 14 15 15 15 15 15 16 17 17 17 15 13 14 10 11 10 10 9 8 7 6 5 6 6 7 7 7
14 14 15 15 15 14 14 14 14 14 13 13 14 14 13 13 13 13 14 15 15 14 13 16 12 12 10 9 9 8 7 6 6 5 5 6 6 7
14 14 14 14 13 12 12 13 13 12 11 10 10 10 9 9 10 12 14 15 17 15 13 14 13 13 12 11 9 9 8 7 6 6 5 6 6 6
13 13 12 11 10 10 11 12 13 13 12 13 12 11 11 11 10 11 12 15 16 17 13 14 14 13 14 10 10 9 9 7 7 6 6 6 6 6
13 13 12 10 9 9 9 10 11 10 10 10 11 11 11 11 11 12 12 13 15 15 12 13 14 13 13 13 10 10 9 9 8 7 6 5 6 6
13 12 11 9 8 8 9 10 10 10 13 14 14 14 13 13 12 12 11 11 11 13 12 12 14 13 13 14 12 9 9 9 8 8 7 6 5 5
10 10 9 10 10 12 12 12 13 15 16 16 17 16 14 13 12 12 12 12 12 12 12 12 14 14 14 15 13 10 9 10 8 8 8 8 8 7
10 12 12 14 14 15 17 16 16 16 17 18 17 16 15 14 14 14 14 14 15 15 13 13 14 14 16 15 13 12 8 10 9 8 8 8 8 7
13 17 19 19 20 19 19 19 18 18 19 18 18 17 16 15 14 13 14 14 16 16 15 14 13 13 13 14 15 11 10 10 9 9 9 9 8 8
19 22 22 21 21 21 21 20 19 20 19 19 18 17 16 14 14 13 13 14 15 16 16 15 14 15 14 13 11 12 9 9 9 8 8 9 10 8
23 23 23 22 22 21 21 21 21 19 19 18 17 16 16 14 14 14 13 13 14 14 14 14 15 14 15 15 9 7 9 8 9 9 8 8 9 8
24 24 23 22 22 21 21 20 20 19 19 18 17 17 16 15 14 13 13 13 13 13 12 12 13 12 12 12 9 8 5 7 8 8 9 7 7 6
23 23 23 22 21 20 20 20 20 19 19 18 17 17 16 15 15 14 12 12 11 11 11 10 10 8 7 7 9 9 8 5 6 7 8 9 9 10
24 24 23 22 21 21 20 19 19 19 19 18 17 16 16 15 15 15 13 13 12 10 9 8 7 7 8 7 8 11 10 7 6 7 7 7 10 13
25 24 23 23 22 21 20 19 20 19 18 18 16 16 16 16 15 14 14 13 11 10 9 9 9 8 8 8 10 11 10 10 10 13 15 10 10 10

GFSNE_con_lsi_033.txt.gz
Lid_Strength_Index
10 10 10 10 10 10 11 11 13 15 15 12 12 9 9 9 9 10 10 9 9 8 8 7 7 7 7 7 7 7 5 4 4 2 0 1 1 2
10 11 10 10 11 10 10 11 11 13 15 12 11 11 10 10 10 10 10 9 9 9 8 8 8 7 7 7 7 6 7 6 5 4 2 1 1 2
11 11 11 11 11 11 11 11 11 12 14 13 12 11 12 12 11 11 11 11 11 10 9 9 8 8 8 7 7 6 6 6 6 5 4 3 2 2
11 12 12 11 12 11 11 12 12 12 13 15 13 13 13 12 12 12 11 11 11 10 9 8 8 8 8 8 8 7 7 7 6 6 6 5 4 3
11 12 12 12 12 12 12 12 12 11 12 13 14 12 12 12 13 13 13 13 11 10 10 10 10 9 9 8 8 8 8 7 7 6 6 7 6 4
10 11 11 11 11 11 12 12 12 12 12 13 13 13 13 12 12 14 14 13 14 12 12 12 11 10 9 9 9 8 8 8 8 8 6 6 6 6
10 10 10 10 10 11 11 11 12 12 13 13 14 14 14 14 14 13 14 14 13 13 13 13 14 14 13 12 11 11 10 9 8 8 7 7 6 6
11 10 10 10 10 10 10 9 10 12 13 13 14 14 14 13 13 13 13 15 16 12 13 14 13 14 14 13 11 10 10 10 10 8 8 8 7 6
11 11 11 11 10 11 10 9 9 9 9 11 13 13 13 12 12 13 13 13 14 12 12 14 12 13 12 12 11 11 11 11 10 9 8 8 8 7
10 11 11 11 10 10 11 10 10 10 10 10 10 11 11 10 11 11 12 12 11 10 10 14 11 13 12 12 10 10 11 11 10 10 9 9 8 7
10 10 10 10 9 8 9 11 10 10 8 7 7 7 7 7 7 9 11 12 13 12 10 12 12 13 12 12 12 10 10 10 10 10 10 9 8 7
10 10 8 8 8 7 8 9 11 11 11 11 10 10 9 9 8 9 11 13 13 14 11 12 13 13 15 12 12 12 12 10 10 10 10 10 9 9
10 10 9 7 7 7 7 10 11 10 11 12 13 12 12 11 10 10 10 11 13 13 10 11 13 13 14 15 12 12 12 12 12 11 11 11 10 8
10 9 8 7 7 7 8 9 9 10 14 14 14 14 14 13 12 12 12 12 12 12 11 11 13 13 14 15 16 13 12 12 12 13 12 11 10 10
9 8 6 8 8 9 9 10 11 13 14 16 16 15 14 13 13 13 13 13 13 12 11 11 12 13 13 15 15 15 14 13 12 13 13 13 14 12
7 8 9 9 9 10 12 12 12 13 15 15 15 15 14 15 16 15 15 15 15 15 12 11 12 12 14 14 14 15 14 15 14 13 13 13 13 13
7 10 12 12 13 13 13 14 14 14 15 15 16 17 16 16 16 15 16 16 17 16 15 12 11 11 11 12 14 14 15 15 14 14 14 15 14 12
11 13 13 14 14 14 15 15 15 15 15 16 17 16 17 17 17 16 16 16 17 16 15 13 12 12 12 11 9 13 13 14 13 14 14 16 15 13
14 14 15 15 15 15 16 16 16 15 16 16 16 17 17 17 17 16 16 16 16 16 15 14 14 14 15 15 10 6 11 11 12 13 13 15 15 14
16 16 16 16 16 17 17 17 17 17 17 17 17 17 17 17 17 17 16 17 17 17 17 15 14 13 13 13 12 9 5 8 10 12 13 13 10 9
17 17 16 17 17 18 18 18 18 18 18 18 18 17 17 17 17 17 16 17 17 17 17 16 13 11 11 10 11 9 7 5 7 9 11 12 12 11
17 17 18 17 18 19 19 19 19 19 19 18 18 18 17 17 17 17 16 17 17 16 16 14 13 12 11 11 10 9 8 7 7 7 6 8 9 10
17 18 18 18 19 20 20 20 20 20 20 19 19 18 18 18 17 16 16 16 16 16 16 14 13 11 11 10 9 9 9 8 10 11 11 7 6 6

GFSNE_con_lsi_036.txt.gz
Lid_Strength_Index
14 13 13 13 12 13 12 13 14 17 16 15 14 12 11 11 10 11 11 10 9 8 8 8 8 7 7 6 6 6 5 6 6 6 5 4 3 1
13 14 14 13 13 13 13 13 13 15 16 14 13 13 12 11 11 11 12 10 10 9 9 8 8 8 7 7 7 6 6 5 5 5 6 5 4 2
14 14 13 13 14 13 13 13 13 14 15 14 13 13 13 13 12 12 12 13 12 10 10 9 8 8 8 7 7 7 7 6 6 6 5 5 5 4
13 13 13 12 14 13 13 13 13 13 14 15 13 13 13 13 13 13 12 12 12 11 9 9 9 9 9 9 9 8 8 8 7 7 6 6 5 5
13 13 13 13 13 13 13 13 13 12 13 13 14 13 13 13 13 13 12 12 11 10 10 10 10 10 10 9 9 9 9 9 8 7 7 7 7 6
12 12 12 12 12 13 12 13 12 13 13 13 14 14 14 13 13 14 14 13 13 11 11 10 10 10 10 10 10 10 10 10 9 9 8 8 8 7
12 12 11 11 9 10 11 12 12 13 13 14 14 14 14 14 14 13 14 14 13 13 13 13 12 12 12 11 12 11 10 9 9 9 9 9 9 8
12 11 11 11 11 9 9 9 9 12 15 14 14 14 13 12 12 12 13 14 16 11 13 13 12 12 12 12 10 10 10 10 10 10 10 10 9 9
11 11 11 11 11 11 10 9 9 9 8 10 12 12 13 12 12 13 13 13 13 12 11 13 11 12 11 10 9 9 9 9 10 10 10 10 10 9
11 11 11 11 11 10 11 11 11 10 9 9 9 9 9 9 9 10 10 11 11 10 10 14 11 12 11 10 8 8 9 9 9 9 10 10 10 10
10 10 10 10 9 7 9 11 10 9 7 7 7 7 7 7 8 11 13 14 14 13 10 12 12 12 11 11 10 8 8 8 9 9 9 9 10 10
11 9 8 8 7 6 8 9 12 11 10 10 10 11 10 10 9 11 12 14 14 14 10 12 12 12 13 12 11 10 11 9 8 9 9 9 9 12
12 11 9 7 6 6 6 8 10 8 11 14 14 13 13 12 12 11 11 12 14 15 12 12 14 14 14 14 12 11 11 11 11 10 9 9 9 10
12 10 10 7 6 5 6 7 6 8 16 16 15 15 15 14 13 12 12 12 12 13 12 12 14 14 15 16 16 13 12 11 11 11 11 10 9 10
9 9 7 6 7 9 9 8 9 14 16 19 17 15 14 13 13 14 13 13 13 13 12 12 13 13 14 15 16 15 14 13 12 12 12 12 12 12
9 10 10 8 8 10 13 11 12 13 14 15 15 14 14 15 15 15 16 15 16 16 13 13 13 13 14 14 14 15 14 15 13 13 12 12 12 12
11 14 17 17 17 16 17 15 14 15 16 16 16 17 16 15 15 15 16 16 17 17 16 14 13 13 13 13 15 14 14 14 13 13 13 14 13 12
12 22 21 19 17 17 18 17 16 15 16 16 17 17 17 17 17 16 16 16 17 17 17 16 15 15 15 14 11 13 12 12 11 11 12 14 14 13
20 22 20 19 18 17 18 18 16 15 17 17 17 17 17 18 17 17 17 17 17 17 17 16 16 17 18 19 14 9 12 12 11 11 10 12 13 13
24 21 19 20 17 19 19 19 17 17 19 18 18 19 19 18 18 18 17 18 18 17 17 17 16 16 17 17 16 13 8 11 11 10 8 8 9 8
19 20 18 18 19 19 22 23 20 20 20 21 20 20 19 19 19 18 18 18 17 17 18 17 15 13 13 13 14 14 10 6 6 8 7 9 12 12
19 19 19 19 20 21 25 24 21 24 24 25 24 22 20 20 19 19 19 19 17 17 17 16 15 14 15 14 14 13 10 9 6 6 6 7 10 12
20 20 20 20 21 22 26 24 23 22 25 27 26 22 21 21 21 20 19 18 17 17 17 17 16 15 16 15 13 12 11 12 11 11 9 8 7 7

GFSNE_con_lsi_042.txt.gz
Lid_Strength_Index
18 18 17 17 17 17 17 16 17 20 19 16 15 14 13 13 12 12 12 10 8 8 7 7 7 6 6 6 6 6 6 5 5 5 5 5 5 5
18 18 18 17 17 17 17 16 16 17 18 15 15 15 14 12 11 12 12 9 9 8 7 7 6 6 6 6 6 6 6 6 6 6 5 5 5 5
18 18 18 17 18 18 17 16 16 16 17 16 15 14 14 13 12 11 11 11 10 8 7 6 6 6 6 6 6 7 7 6 7 7 7 6 6 5
18 18 18 16 17 17 16 16 16 16 16 17 15 14 13 12 12 12 10 10 10 8 7 6 6 6 6 6 6 7 7 7 8 8 8 7 7 6
17 17 17 17 16 16 16 16 16 14 15 15 15 13 12 11 11 11 11 10 9 7 7 7 7 7 6 6 7 7 7 8 8 8 8 7 7 7
17 16 16 16 15 15 15 15 14 14 14 14 14 13 12 10 10 11 12 10 10 9 8 8 7 7 7 7 7 8 8 8 7 7 8 8 8 8
17 15 15 14 12 12 14 14 14 14 14 13 13 12 12 11 11 11 11 11 11 9 11 10 10 10 10 8 9 9 8 7 7 7 8 8 8 8
16 15 14 14 12 10 10 9 10 14 22 19 12 11 11 10 10 11 11 12 15 9 11 13 11 12 10 10 8 8 7 7 7 7 7 7 8 8
15 14 14 13 13 13 11 9 9 8 7 9 10 10 10 9 10 10 12 12 13 11 12 15 12 12 11 10 8 7 8 8 7 7 7 7 8 8
14 14 14 13 13 13 13 12 12 11 10 9 8 8 8 7 8 10 11 13 12 11 11 16 12 13 11 11 9 8 8 7 7 7 6 7 8 8
13 13 13 13 11 9 11 13 11 10 7 6 5 6 6 6 8 11 16 15 16 14 12 13 12 14 13 12 10 8 8 8 8 8 8 7 7 8
14 13 11 12 10 9 10 12 12 11 10 13 12 11 10 11 9 10 12 15 15 17 12 14 14 14 16 12 11 11 11 9 9 8 8 8 8 10
15 14 13 10 8 7 7 9 10 9 12 16 16 15 13 13 12 11 10 12 15 16 13 13 15 15 16 16 14 12 12 11 11 10 9 8 8 8
15 13 13 9 8 7 7 6 5 7 20 21 21 17 15 14 12 11 11 11 12 12 12 13 15 16 17 17 17 14 13 13 12 11 11 10 9 8
11 12 9 8 7 7 6 6 9 16 19 22 20 16 14 13 12 12 12 12 12 12 12 13 14 14 15 17 18 16 16 15 13 12 12 12 12 11
9 10 9 8 8 8 11 9 12 14 15 17 16 14 13 14 15 13 14 15 16 16 13 13 13 14 15 16 16 17 16 17 15 14 13 12 11 11
13 21 20 15 13 13 15 14 14 14 15 16 17 16 15 15 15 14 15 17 18 18 17 15 14 14 14 15 17 17 17 16 14 13 14 14 13 12
12 14 15 15 14 13 13 13 15 15 15 16 18 18 17 17 17 16 17 19 19 19 18 17 17 17 16 15 12 16 15 15 14 13 13 14 14 11
9 10 12 14 14 14 14 15 16 15 15 16 17 17 18 19 19 20 19 19 20 19 19 18 19 18 20 21 16 12 15 15 15 14 13 13 13 11
20 20 18 16 15 15 15 16 16 17 17 17 18 20 21 25 23 21 21 21 21 20 21 20 18 17 19 20 19 16 12 14 14 13 12 12 11 8
26 24 23 21 18 18 19 19 19 19 20 20 21 23 22 27 26 22 21 21 21 22 22 20 17 15 16 16 19 18 15 12 11 13 13 13 13 12
31 31 27 26 24 24 24 22 22 23 21 21 22 23 23 25 24 23 22 22 23 22 21 19 17 17 18 19 20 19 16 14 12 11 11 10 12 14
29 29 28 28 24 24 23 23 23 21 21 21 22 24 25 27 28 22 22 23 23 22 22 19 18 18 19 19 19 19 19 17 16 16 15 10 9 9

GFSNE_con_lsi_045.txt.gz
Lid_Strength_Index
19 19 18 18 18 18 18 18 19 21 21 19 18 16 15 14 13 13 13 11 9 8 7 6 5 4 4 4 3 3 3 3 4 4 4 4 4 4
19 19 19 19 19 18 18 18 18 20 21 18 17 16 15 14 13 13 13 10 10 8 6 5 4 4 4 4 4 3 3 3 3 4 4 4 5 5
19 19 19 19 19 19 19 19 19 18 20 18 16 16 15 15 14 13 12 12 10 7 6 5 5 5 5 4 4 4 4 4 4 4 4 5 5 5
19 19 19 18 19 19 19 19 19 18 18 19 17 16 16 14 14 14 12 10 9 7 5 5 5 5 5 5 5 5 5 5 5 5 5 5 5 5
19 19 19 19 19 19 19 19 18 16 17 17 17 15 14 13 13 12 11 10 8 6 6 6 6 6 6 6 6 6 6 6 6 6 5 5 5 5
18 18 18 18 18 18 18 18 17 17 16 16 16 15 14 12 12 12 12 10 10 8 8 8 7 7 7 7 7 8 7 7 6 6 5 5 5 6
18 17 18 17 15 16 17 17 16 16 16 16 15 14 14 13 13 11 11 11 10 9 11 10 11 10 9 8 8 8 7 6 6 6 6 6 6 6
18 18 18 17 15 13 11 10 12 16 21 20 14 14 13 12 11 11 11 12 13 10 12 12 11 11 10 9 7 6 7 7 7 7 7 6 6 6
18 18 17 16 16 16 13 10 10 9 9 11 13 11 12 11 10 10 11 12 12 11 12 14 11 12 10 9 7 6 6 7 6 7 7 7 7 7
18 17 17 16 15 15 15 15 14 13 12 11 11 10 10 8 8 9 11 14 13 12 11 16 12 13 11 10 7 7 6 6 7 8 7 7 7 7
17 17 16 15 13 11 13 15 14 12 9 7 6 6 6 6 7 11 20 22 17 14 11 13 13 14 12 12 10 7 7 8 8 8 8 8 8 8
16 15 13 13 11 10 11 15 15 12 12 13 12 11 10 11 9 11 13 20 16 18 11 14 14 14 17 12 11 11 11 9 9 9 8 8 8 10
16 15 14 10 9 8 8 11 12 10 12 12 14 14 14 13 13 12 11 12 15 15 12 12 14 15 16 17 14 12 12 12 12 12 10 9 8 8
15 14 14 11 9 8 8 7 7 7 15 18 21 17 16 15 13 12 11 11 12 12 11 12 15 16 17 17 17 14 13 13 13 13 12 10 10 9
13 12 10 9 8 8 7 7 7 13 15 17 16 16 15 14 13 13 13 13 13 12 12 12 14 15 15 17 18 16 16 14 14 13 14 13 13 12
10 12 10 8 8 8 11 10 10 12 13 15 16 15 14 15 16 14 16 15 16 17 13 12 13 14 16 16 16 18 16 17 14 14 13 13 12 12
15 22 20 16 13 13 12 12 12 13 14 14 15 17 16 16 16 15 16 19 20 19 18 15 14 14 15 16 18 17 17 16 14 14 14 14 13 12
14 16 15 14 14 14 14 13 15 14 14 15 16 18 18 17 17 18 17 19 20 19 19 18 18 18 17 17 13 16 16 16 14 15 14 14 14 11
12 16 17 17 16 15 15 15 14 15 14 16 16 17 20 20 20 21 19 19 21 20 19 19 20 20 21 21 17 12 16 16 15 15 14 13 14 12
21 23 26 24 21 19 18 17 18 17 17 18 18 19 20 21 24 23 21 25 23 22 21 21 20 19 19 20 19 17 13 15 15 15 14 13 12 9
31 30 31 30 28 27 24 23 22 21 20 21 22 21 22 24 24 22 22 21 21 24 23 22 18 16 16 17 20 19 17 12 13 15 14 14 14 13
34 34 33 34 33 31 29 27 27 27 25 24 22 22 23 23 22 23 23 22 26 23 21 20 19 18 20 20 21 20 18 16 14 12 12 11 14 16
34 34 33 34 32 31 31 30 31 28 27 23 22 23 23 25 23 22 23 25 23 24 22 22 20 19 20 20 21 20 20 19 17 17 16 12 11 11

GFSNE_con_lsi_048.txt.gz
Lid_Strength_Index
19 19 19 20 19 19 19 19 20 22 22 20 20 17 17 17 16 16 15 12 9 9 8 7 6 5 4 3 3 2 2 2 2 2 1 1 2 2
19 19 19 19 19 19 19 19 19 21 22 20 19 18 18 16 15 15 14 11 11 9 8 7 5 5 4 3 3 3 3 3 2 2 2 2 2 2
20 20 20 19 20 20 19 20 20 20 21 20 19 19 18 18 16 15 14 13 12 9 8 6 5 5 4 4 4 4 4 4 4 3 3 3 3 2
20 20 20 19 20 20 20 20 20 20 20 21 20 19 18 16 16 15 14 12 12 9 7 6 5 5 5 5 5 5 6 6 6 5 4 4 3 3
19 19 20 20 20 20 21 20 20 18 20 20 20 18 17 16 15 14 13 13 11 9 8 7 6 6 5 5 6 6 7 6 6 5 5 4 4 3
18 19 19 19 19 20 20 20 19 20 20 20 19 18 17 15 15 15 14 12 12 10 9 8 7 7 7 6 6 7 6 5 5 5 6 6 5 5
19 18 19 19 17 17 19 19 19 20 19 19 18 18 16 16 15 14 14 13 12 11 12 11 11 11 10 8 8 7 5 5 4 5 5 5 5 5
19 19 18 18 16 14 14 14 16 19 24 22 17 16 15 15 14 14 13 13 15 11 13 13 11 12 10 10 6 6 5 5 5 5 5 6 6 6
19 18 18 17 18 18 15 12 12 11 11 15 15 14 14 13 13 13 12 13 13 12 13 15 12 13 10 9 6 5 5 5 6 6 5 6 6 6
18 18 18 17 17 18 18 18 16 15 13 13 13 13 13 11 11 10 12 15 13 13 12 16 13 14 11 10 7 6 6 6 7 7 6 6 6 7
18 17 17 17 15 13 16 17 16 14 11 9 9 8 7 6 8 13 20 22 17 15 13 14 14 15 13 12 10 7 7 7 7 7 8 7 7 7
17 17 15 16 14 12 13 15 16 14 14 14 12 11 10 12 10 12 13 20 18 19 13 15 14 14 17 13 11 11 11 9 8 8 8 8 8 9
16 16 16 13 11 9 9 12 13 12 13 12 14 14 14 14 13 13 12 13 15 16 13 12 15 15 17 16 14 13 12 12 12 11 10 10 9 9
16 16 15 11 10 9 9 8 8 8 11 16 17 16 16 15 14 13 12 12 12 13 12 12 15 16 17 18 18 14 14 13 13 13 12 11 10 10
14 14 12 10 9 9 8 8 8 9 13 16 17 16 15 14 13 13 13 13 13 13 12 12 14 14 15 17 18 17 16 15 14 13 13 13 13 12
12 15 11 10 9 10 12 10 11 11 12 13 13 13 14 15 15 15 17 17 19 18 14 13 13 14 16 16 17 18 17 18 15 14 13 13 13 12
20 23 21 19 18 17 16 13 12 11 13 13 14 15 15 15 16 16 17 21 23 21 19 16 14 14 15 16 19 18 18 16 15 14 15 15 14 12
20 21 20 18 16 15 15 15 16 16 16 16 16 16 16 16 17 18 18 23 24 21 20 18 18 19 20 18 13 17 16 16 15 15 15 16 15 13
17 20 21 22 21 19 19 19 18 18 17 18 17 18 17 18 19 21 21 21 24 21 20 19 20 22 25 22 18 13 17 16 16 16 15 15 15 14
20 21 22 22 25 24 24 23 23 22 22 21 20 21 21 21 23 25 23 24 23 22 22 20 22 21 21 21 20 17 13 16 16 16 16 14 13 10
25 27 31 31 30 31 31 30 28 27 26 27 28 26 24 24 25 23 22 21 21 22 22 21 18 16 18 19 24 21 17 13 13 15 14 15 15 15
27 32 34 36 36 35 34 34 32 32 31 32 31 28 24 23 22 24 23 22 22 21 21 19 19 20 22 21 21 21 19 17 15 13 12 12 15 16
34 35 35 36 37 36 36 34 34 31 33 32 31 29 26 28 24 22 21 22 22 22 22 22 22 20 22 21 21 20 21 20 17 18 17 12 12 12